Terminal Aerodrome Forecast
Issued by NWS Hastings, NE

Home | Current Version | Previous Version | Text Only | Print | Product List | Glossary On
Versions: 1 2 3 4 5 6 7 8 9 10 11 12 13 14 15 16 17 18 19 20
000
FTUS43 KGID 242320
TAFGRI
TAF
KGRI 242320Z 2500/2524 20009KT P6SM SCT035
     FM250900 32011KT P6SM SKC
     FM251500 32015G22KT P6SM SKC
     FM251800 32020G28KT P6SM SKC=

USA.gov is the U.S. government's official web portal to all federal, state and local government web resources and services.